CW2548 Weather Reports


time (UTC)temp
C
wind
direction
speed
KPH
gust
KPH
rain 1hr
cm
rain 24hr
cm
rain mn
cm
humidity
%
barometer
mb
20200229094146 15 93 3.2 8.0 0.00 0.00 0.00 46 1017.6
20200229093246 15 97 3.2 6.4 0.00 0.00 0.00 46 1017.8
20200229092346 15 83 1.6 6.4 0.00 0.00 0.00 45 1017.9
20200229091446 16 86 0.0 6.4 0.00 0.00 0.00 46 1018.1
20200229090546 16 87 3.2 6.4 0.00 0.00 0.00 46 1018.2
20200229085646 16 87 3.2 6.4 0.00 0.00 0.00 46 1018.2
20200229084746 16 80 3.2 6.4 0.00 0.00 0.00 45 1018.4
20200229083846 16 75 3.2 8.0 0.00 0.00 0.00 43 1018.6
20200229082946 16 93 1.6 8.0 0.00 0.00 0.00 43 1018.6
20200229082046 16 103 1.6 4.8 0.00 0.00 0.00 43 1018.9
20200229081146 16 98 1.6 4.8 0.00 0.00 0.00 42 1018.9
20200229080246 17 114 0.0 6.4 0.00 0.00 0.00 42 1019.0
20200229075346 17 0 0.0 0.0 0.00 0.00 0.00 43 1019.0
20200229074446 16 98 1.6 6.4 0.00 0.00 0.00 46 1019.1
20200229073546 16 107 0.0 3.2 0.00 0.00 0.00 50 1019.2
20200229072646 16 79 1.6 3.2 0.00 0.00 0.00 53 1019.4
20200229071746 16 50 3.2 8.0 0.00 0.00 0.00 59 1019.3
20200229070846 16 62 1.6 8.0 0.00 0.00 0.00 56 1019.2
20200229065946 17 0 0.0 0.0 0.00 0.00 0.00 47 1019.3
20200229065046 17 0 0.0 0.0 0.00 0.00 0.00 44 1019.3
20200229064146 18 0 0.0 0.0 0.00 0.00 0.00 44 1019.2
20200229063246 18 0 0.0 0.0 0.00 0.00 0.00 42 1019.3
20200229062346 18 103 0.0 1.6 0.00 0.00 0.00 42 1019.3
20200229061446 18 103 0.0 1.6 0.00 0.00 0.00 43 1019.5
20200229060546 19 233 0.0 3.2 0.00 0.00 0.00 42 1019.4
20200229055646 18 0 0.0 0.0 0.00 0.00 0.00 43 1019.4
20200229054746 18 232 0.0 1.6 0.00 0.00 0.00 45 1019.3
20200229053846 19 0 0.0 0.0 0.00 0.00 0.00 45 1019.2
20200229052946 19 0 0.0 0.0 0.00 0.00 0.00 44 1019.2
20200229052046 19 0 0.0 0.0 0.00 0.00 0.00 43 1019.2
20200229051146 20 0 0.0 0.0 0.00 0.00 0.00 42 1019.2
20200229050246 20 0 0.0 0.0 0.00 0.00 0.00 41 1019.2
20200229045346 20 93 0.0 1.6 0.00 0.00 0.00 40 1019.4
20200229044451 20 92 0.0 3.2 0.00 0.00 0.00 39 1019.4
20200229043546 21 0 0.0 0.0 0.00 0.00 0.00 37 1019.4
20200229042646 21 93 0.0 1.6 0.00 0.00 0.00 37 1019.4
20200229041746 21 202 0.0 1.6 0.00 0.00 0.00 36 1019.4
20200229040846 22 243 1.6 3.2 0.00 0.00 0.00 35 1019.2
20200229035946 22 240 0.0 4.8 0.00 0.00 0.00 35 1019.2
20200229035046 22 238 0.0 4.8 0.00 0.00 0.00 35 1019.1
20200229034145 22 240 3.2 8.0 0.00 0.00 0.00 34 1019.2
20200229033246 22 237 4.8 8.0 0.00 0.00 0.00 34 1019.1
20200229032346 22 237 1.6 6.4 0.00 0.00 0.00 35 1019.0
20200229031446 22 236 0.0 6.4 0.00 0.00 0.00 35 1019.0
20200229030546 22 240 1.6 4.8 0.00 0.00 0.00 35 1018.7
20200229025646 23 239 1.6 4.8 0.00 0.00 0.00 35 1018.7
20200229024746 23 262 1.6 3.2 0.00 0.00 0.00 34 1018.7
20200229023846 23 248 1.6 4.8 0.00 0.00 0.00 34 1018.5
20200229022946 24 239 3.2 6.4 0.00 0.00 0.00 33 1018.5
20200229022046 24 240 3.2 6.4 0.00 0.00 0.00 33 1018.2
20200229021146 24 241 1.6 8.0 0.00 0.00 0.00 32 1018.2
20200229020246 25 261 1.6 6.4 0.00 0.00 0.00 31 1018.3
20200229015346 25 252 3.2 8.0 0.00 0.00 0.00 28 1018.3
20200229014446 25 242 1.6 9.7 0.00 0.00 0.00 25 1018.1
20200229013546 25 239 1.6 8.0 0.00 0.00 0.00 22 1018.3
20200229012646 26 230 0.0 4.8 0.00 0.00 0.00 21 1018.1
20200229011746 26 268 0.0 3.2 0.00 0.00 0.00 21 1018.2
20200229010846 26 265 0.0 3.2 0.00 0.00 0.00 21 1018.3
20200229005946 26 250 0.0 4.8 0.00 0.00 0.00 21 1018.3
20200229005046 26 237 1.6 3.2 0.00 0.00 0.00 20 1018.3
20200229004146 26 238 3.2 8.0 0.00 0.00 0.00 20 1018.3
20200229003246 27 242 3.2 9.7 0.00 0.00 0.00 20 1018.4
20200229002346 27 247 1.6 6.4 0.00 0.00 0.00 20 1018.6
20200229001446 27 261 3.2 8.0 0.00 0.00 0.00 20 1018.7
20200229000546 27 246 3.2 11.3 0.00 0.00 0.00 19 1018.6
20200228235646 28 250 3.2 11.3 0.00 0.00 0.00 19 1018.6
20200228234747 28 259 4.8 9.7 0.00 0.00 0.00 19 1018.5
20200228233846 28 248 4.8 11.3 0.00 0.00 0.00 20 1018.3
20200228232946 28 262 4.8 12.9 0.00 0.00 0.00 19 1018.3
20200228232046 28 280 8.0 16.1 0.00 0.00 0.00 18 1018.3
20200228231146 28 281 6.4 14.5 0.00 0.00 0.00 17 1018.4
20200228230246 28 279 6.4 14.5 0.00 0.00 0.00 17 1018.2
20200228225346 28 284 8.0 17.7 0.00 0.00 0.00 16 1018.3
20200228224446 28 277 6.4 16.1 0.00 0.00 0.00 16 1018.7
20200228223546 29 272 8.0 16.1 0.00 0.00 0.00 17 1018.7
20200228222646 28 284 8.0 16.1 0.00 0.00 0.00 17 1018.6
20200228221746 28 277 8.0 14.5 0.00 0.00 0.00 17 1018.6
20200228220846 28 290 9.7 19.3 0.00 0.00 0.00 17 1018.6
20200228215946 29 288 8.0 19.3 0.00 0.00 0.00 16 1018.7
20200228215046 29 282 6.4 16.1 0.00 0.00 0.00 16 1018.7
20200228214146 30 296 4.8 14.5 0.00 0.00 0.00 16 1018.4
20200228213246 30 286 4.8 11.3 0.00 0.00 0.00 14 1018.3
20200228212346 30 310 3.2 12.9 0.00 0.00 0.00 15 1018.3
20200228211446 30 298 3.2 8.0 0.00 0.00 0.00 14 1018.3
20200228210546 30 290 1.6 11.3 0.00 0.00 0.00 14 1018.3
20200228205646 32 228 0.0 3.2 0.00 0.00 0.00 13 1018.4
20200228204746 31 233 1.6 6.4 0.00 0.00 0.00 12 1018.3
20200228203846 30 263 1.6 6.4 0.00 0.00 0.00 14 1018.4
20200228202946 31 272 0.0 4.8 0.00 0.00 0.00 14 1018.7
20200228202046 31 325 0.0 4.8 0.00 0.00 0.00 14 1018.8
20200228201146 30 335 1.6 6.4 0.00 0.00 0.00 15 1018.9
20200228200246 28 36 1.6 4.8 0.00 0.00 0.00 17 1019.0
20200228195346 28 89 1.6 4.8 0.00 0.00 0.00 17 1019.2
20200228194446 28 85 1.6 6.4 0.00 0.00 0.00 17 1019.6
20200228193546 28 47 0.0 8.0 0.00 0.00 0.00 18 1019.8
20200228192646 29 332 1.6 1.6 0.00 0.00 0.00 17 1020.0
20200228191746 28 123 1.6 8.0 0.00 0.00 0.00 17 1020.1
20200228190846 27 108 1.6 6.4 0.00 0.00 0.00 19 1020.3
20200228185946 26 85 3.2 9.7 0.00 0.00 0.00 20 1020.3
20200228185046 26 95 3.2 9.7 0.00 0.00 0.00 21 1020.5
20200228184146 25 87 4.8 9.7 0.00 0.00 0.00 21 1020.6
20200228183246 25 62 4.8 8.0 0.00 0.00 0.00 23 1020.6
20200228182346 24 75 4.8 8.0 0.00 0.00 0.00 23 1020.7
20200228181446 24 67 6.4 9.7 0.00 0.00 0.00 24 1020.8
20200228180546 23 62 6.4 11.3 0.00 0.00 0.00 23 1020.9
20200228175646 23 69 3.2 11.3 0.00 0.00 0.00 24 1020.9
20200228174746 23 59 3.2 8.0 0.00 0.00 0.00 26 1020.9
20200228173846 23 74 6.4 9.7 0.00 0.00 0.00 25 1021.1
20200228172946 22 83 6.4 12.9 0.00 0.00 0.00 25 1021.1
20200228172046 22 74 6.4 12.9 0.00 0.00 0.00 25 1021.1
20200228171151 22 72 9.7 14.5 0.00 0.00 0.00 26 1021.1
20200228170246 21 70 9.7 14.5 0.00 0.00 0.00 27 1021.1
20200228165346 21 61 9.7 17.7 0.00 0.00 0.00 28 1021.2
20200228164446 20 70 9.7 17.7 0.00 0.00 0.00 27 1021.2
20200228163546 20 63 9.7 16.1 0.00 0.00 0.00 28 1021.1
20200228162645 19 65 8.0 17.7 0.00 0.00 0.00 29 1021.1
20200228161745 19 78 6.4 17.7 0.00 0.00 0.00 29 1021.1
20200228160846 18 80 6.4 11.3 0.00 0.00 0.00 31 1021.1
20200228155946 18 80 6.4 12.9 0.00 0.00 0.00 31 1020.9
20200228155046 17 103 4.8 9.7 0.00 0.00 0.00 32 1021.0
20200228154146 17 110 6.4 11.3 0.00 0.00 0.00 33 1020.7
20200228153246 17 97 8.0 11.3 0.00 0.00 0.00 33 1020.5
20200228152346 17 79 6.4 12.9 0.00 0.00 0.00 33 1020.3
20200228151446 16 85 8.0 11.3 0.00 0.00 0.00 34 1020.3
20200228150546 16 86 8.0 16.1 0.00 0.00 0.00 34 1020.1
20200228145646 16 110 6.4 12.9 0.00 0.00 0.00 34 1020.1
20200228144746 16 111 6.4 9.7 0.00 0.00 0.00 36 1020.1
20200228143846 15 79 6.4 11.3 0.00 0.00 0.00 37 1019.8
20200228142946 15 84 4.8 11.3 0.00 0.00 0.00 37 1019.8
20200228142046 15 92 6.4 11.3 0.00 0.00 0.00 38 1019.7
20200228141146 15 86 6.4 11.3 0.00 0.00 0.00 38 1019.5
20200228140246 15 92 6.4 12.9 0.00 0.00 0.00 37 1019.5
20200228135346 15 108 4.8 11.3 0.00 0.00 0.00 37 1019.5
20200228134446 15 112 4.8 8.0 0.00 0.00 0.00 37 1019.5
20200228133546 15 103 4.8 9.7 0.00 0.00 0.00 37 1019.3
20200228132646 14 118 4.8 8.0 0.00 0.00 0.00 37 1019.4
20200228131746 14 112 4.8 8.0 0.00 0.00 0.00 38 1019.4
20200228130846 14 107 4.8 8.0 0.00 0.00 0.00 38 1019.4
20200228125946 14 103 4.8 9.7 0.00 0.00 0.00 38 1019.3
20200228125045 14 93 4.8 9.7 0.00 0.00 0.00 39 1019.1
20200228124146 14 91 4.8 8.0 0.00 0.00 0.00 39 1019.0
20200228123246 15 83 6.4 9.7 0.00 0.00 0.00 39 1019.1
20200228122346 15 85 4.8 9.7 0.00 0.00 0.00 38 1019.1
20200228121446 15 107 4.8 8.0 0.00 0.00 0.00 36 1019.0
20200228120546 15 107 4.8 6.4 0.00 0.00 0.00 36 1018.9
20200228115646 15 118 3.2 6.4 0.00 0.00 0.00 36 1018.9
20200228114746 15 109 3.2 6.4 0.00 0.00 0.00 35 1018.9
20200228113846 16 109 6.4 8.0 0.00 0.00 0.00 35 1018.9
20200228112946 16 113 4.8 8.0 0.00 0.00 0.00 34 1018.8
20200228112046 16 117 4.8 8.0 0.00 0.00 0.00 35 1018.7
20200228111146 15 119 3.2 8.0 0.00 0.00 0.00 35 1018.5
20200228110246 15 110 3.2 6.4 0.00 0.00 0.00 35 1018.4
20200228105346 16 106 4.8 8.0 0.00 0.00 0.00 35 1018.3
20200228104446 15 112 4.8 9.7 0.00 0.00 0.00 36 1018.2
20200228103546 16 102 6.4 9.7 0.00 0.00 0.00 36 1018.2
20200228101746 16 110 6.4 11.3 0.00 0.00 0.00 35 1018.2
20200228100846 16 110 6.4 11.3 0.00 0.00 0.00 34 1018.2
20200228095946 16 97 6.4 12.9 0.00 0.00 0.00 34 1018.1
20200228095046 16 103 4.8 9.7 0.00 0.00 0.00 34 1018.0